Find Starlink 6250

NORAD ID: 57230 Int'l Des: 2023-094 Owner: SPXS Country: US Constellation: starlink operational
LEOCIRCULAR

当前视图

正在加载3D地球...

About Starlink 6250

Starlink 6250 (NORAD 57230) is a starlink constellation satellite (v1.5) launched Jul 7, 2023 by SPXS of US. It operates in LEO, CIRCULAR orbit with a mass of 305.00 kg.

关于 Starlink 6250

正在加载描述...

即将过境

Passes for default location (London). Set your location on the main map for personalized predictions.

高度历史

Loading altitude history...

两行轨道根数

1 57230U 23094N 26167.76115021 .00000377 00000-0 23229-4 0 9999
2 57230 43.0007 191.5206 0001392 277.6304 82.4389 15.27573252162261
Epoch: Jun 16, 2026 • Age: 34 hours

当前状态

高度 485.8 km
速度 7.62 km/s
星下点 -16.49°S, 171.7°W
发射日期 Jul 7, 2023
运行时间 2.9 years
类型 internet

技术详情

分类 Payload
质量 305.00 kg
干质量 290.00 kg
总质量 305.00 kg
长度 0.20 m
直径 2.80 m
跨度 9.00 m
形状 Box + pan
制造商 SPXS
平台类型 Starlink
阶段状态 In Orbit
所有者/国家 SPXS/US

Most Searched